Weather History for Medford, WI

Change the Weather History Date:

Saturday, December 7, 2013

  Actual Average Record
Temperature  
Mean Temperature -7 °F -  
Max Temperature -1 °F 25 °F 44 °F (1988)
Min Temperature -13 °F 9 °F -27 °F (1972)
Degree Days  
Heating Degree Days 72    
Moisture  
Dew Point -14 °F    
Average Humidity 77    
Maximum Humidity 85    
Minimum Humidity 63    
Precipitation  
Precipitation 0.00 in - - ()
Sea Level Pressure  
Sea Level Pressure 30.51 in    
Wind  
Wind Speed 5 mph (WSW)    
Max Wind Speed 10 mph    
Max Gust Speed -    
Visibility 10 miles    
Events      
Averages and records for this station are not official NWS values.
T = Trace of Precipitation, MM = Missing Value Source: NWS Daily Summary

Daily Weather History Graph

Daily Weather History Graph

Search for Another Location

Airport:

Trip Planner

Search our weather history database for the weather conditions in past years. The results will help you decide how hot, cold, wet, or windy it might be!

Date:

Astronomy

Dec. 07, 2013 Rise Set
Actual Time 7:26 AM CST 4:19 PM CST
Civil Twilight 6:52 AM CST 4:52 PM CST
Nautical Twilight 6:15 AM CST 5:29 PM CST
Astronomical Twilight 5:40 AM CST 6:05 PM CST
Moon 11:01 AM CST (12/7) 10:11 PM CST (12/7)
Length of Visible Light 10h 00m
Length of Day
8h 53m
Waxing Crescent, 29% of the Moon is Illuminated
Dec 7
Waxing Crescent
Dec 9
First Quarter
Dec 17
Full
Dec 25
Last Quarter
Jan 1
New

Hourly Weather History & Observations

Time (CST) Temp. Windchill Dew Point Humidity Pressure Visibility Wind Dir Wind Speed Gust Speed Precip Events Conditions
12:15 AM -7.4 °F -20.4 °F -11.9 °F 81% 30.46 in 10.0 mi West 5.8 mph - N/A   Clear
12:35 AM -7.8 °F -23.6 °F -12.3 °F 81% 30.46 in 10.0 mi West 8.1 mph - N/A   Clear
12:55 AM -8.3 °F -19.6 °F -12.8 °F 81% 30.46 in 10.0 mi West 4.6 mph - N/A   Clear
1:15 AM -8.5 °F -17.6 °F -13.0 °F 81% 30.47 in 10.0 mi WSW 3.5 mph - N/A   Clear
1:35 AM -9.9 °F -19.2 °F -14.1 °F 82% 30.47 in 10.0 mi WSW 3.5 mph - N/A   Clear
1:55 AM -9.9 °F -19.2 °F -14.3 °F 81% 30.47 in 10.0 mi WSW 3.5 mph - N/A   Clear
2:15 AM -9.8 °F -21.3 °F -14.1 °F 81% 30.48 in 10.0 mi West 4.6 mph - N/A   Clear
2:35 AM -10.3 °F -21.9 °F -14.8 °F 81% 30.49 in 10.0 mi West 4.6 mph - N/A   Clear
2:55 AM -10.3 °F -23.8 °F -14.6 °F 81% 30.49 in 10.0 mi West 5.8 mph - N/A   Clear
3:15 AM -10.8 °F -20.2 °F -15.0 °F 82% 30.49 in 10.0 mi West 3.5 mph - N/A   Clear
3:35 AM -11.0 °F -26.2 °F -15.2 °F 82% 30.49 in 10.0 mi West 6.9 mph - N/A   Clear
3:55 AM -10.7 °F -28.4 °F -14.8 °F 82% 30.49 in 10.0 mi West 9.2 mph - N/A   Clear
4:15 AM -11.0 °F -27.6 °F -15.3 °F 81% 30.49 in 10.0 mi West 8.1 mph - N/A   Clear
4:35 AM -11.2 °F -24.8 °F -15.3 °F 82% 30.50 in 10.0 mi West 5.8 mph - N/A   Clear
4:55 AM -11.6 °F -23.4 °F -15.9 °F 81% 30.50 in 10.0 mi West 4.6 mph - N/A   Clear
5:15 AM -12.1 °F -21.7 °F -16.1 °F 83% 30.51 in 10.0 mi West 3.5 mph - N/A   Clear
5:35 AM -12.5 °F - -16.6 °F 82% 30.51 in 10.0 mi Calm Calm - N/A   Clear
5:55 AM -12.6 °F -22.3 °F -17.0 °F 81% 30.51 in 10.0 mi WSW 3.5 mph - N/A   Clear
6:15 AM -13.2 °F -22.9 °F -17.5 °F 81% 30.51 in 10.0 mi WSW 3.5 mph - N/A   Clear
6:35 AM -13.4 °F - -17.9 °F 80% 30.53 in 10.0 mi Calm Calm - N/A   Clear
6:55 AM -13.7 °F -23.5 °F -18.0 °F 81% 30.52 in 10.0 mi West 3.5 mph - N/A   Clear
7:15 AM -13.7 °F -27.8 °F -18.2 °F 80% 30.53 in 10.0 mi West 5.8 mph - N/A   Clear
7:35 AM -13.9 °F -26.1 °F -18.4 °F 80% 30.53 in 10.0 mi West 4.6 mph - N/A   Clear
7:55 AM -13.5 °F -27.6 °F -18.0 °F 80% 30.53 in 10.0 mi West 5.8 mph - N/A   Clear
8:15 AM -13.2 °F -27.2 °F -18.0 °F 79% 30.54 in 10.0 mi West 5.8 mph - N/A   Clear
8:35 AM -13.0 °F -28.6 °F -17.5 °F 80% 30.54 in 10.0 mi West 6.9 mph - N/A   Clear
8:55 AM -12.5 °F -29.3 °F -17.1 °F 80% 30.55 in 10.0 mi West 8.1 mph - N/A   Clear
9:15 AM -12.1 °F -25.9 °F -16.8 °F 80% 30.55 in 10.0 mi WSW 5.8 mph - N/A   Clear
9:35 AM -11.0 °F -22.8 °F -15.9 °F 79% 30.56 in 10.0 mi West 4.6 mph - N/A   Clear
9:55 AM -10.5 °F -26.9 °F -15.7 °F 78% 30.57 in 10.0 mi WSW 8.1 mph - N/A   Clear
10:15 AM -9.4 °F -20.9 °F -14.8 °F 77% 30.57 in 10.0 mi WSW 4.6 mph - N/A   Clear
10:35 AM -8.1 °F -22.7 °F -13.5 °F 77% 30.57 in 10.0 mi West 6.9 mph - N/A   Clear
10:55 AM -7.6 °F -18.8 °F -13.2 °F 77% 30.56 in 10.0 mi WSW 4.6 mph - N/A   Clear
11:15 AM -6.7 °F -19.5 °F -12.5 °F 76% 30.56 in 10.0 mi WSW 5.8 mph - N/A   Clear
11:35 AM -5.8 °F -21.2 °F -12.1 °F 74% 30.55 in 10.0 mi West 8.1 mph - N/A   Clear
11:55 AM -4.9 °F -20.1 °F -11.2 °F 74% 30.55 in 10.0 mi WSW 8.1 mph - N/A   Clear
12:15 PM -4.2 °F -19.3 °F -11.0 °F 72% 30.54 in 10.0 mi WSW 8.1 mph - N/A   Clear
12:35 PM -3.8 °F -19.9 °F -11.0 °F 71% 30.54 in 10.0 mi WSW 9.2 mph - N/A   Clear
12:55 PM -3.1 °F -16.7 °F -11.0 °F 69% 30.54 in 10.0 mi WSW 6.9 mph - N/A   Clear
1:15 PM -2.9 °F -17.7 °F -11.0 °F 68% 30.53 in 10.0 mi SW 8.1 mph - N/A   Clear
1:35 PM -2.6 °F -16.0 °F -11.2 °F 67% 30.52 in 10.0 mi SW 6.9 mph - N/A   Clear
1:55 PM -2.2 °F -14.2 °F -11.0 °F 66% 30.52 in 10.0 mi WSW 5.8 mph - N/A   Clear
2:15 PM -1.7 °F -14.9 °F -10.7 °F 66% 30.53 in 10.0 mi SW 6.9 mph - N/A   Clear
2:35 PM -1.7 °F -16.2 °F -11.2 °F 64% 30.52 in 10.0 mi WSW 8.1 mph - N/A   Clear
2:55 PM -1.5 °F -16.0 °F -11.2 °F 63% 30.52 in 10.0 mi SW 8.1 mph - N/A   Clear
3:15 PM -1.7 °F -16.2 °F -11.2 °F 64% 30.53 in 10.0 mi WSW 8.1 mph - N/A   Clear
3:35 PM -2.2 °F -16.8 °F -11.4 °F 65% 30.53 in 10.0 mi WSW 8.1 mph - N/A   Clear
3:55 PM -2.2 °F -18.9 °F -11.4 °F 65% 30.53 in 10.0 mi WSW 10.4 mph - N/A   Clear
4:15 PM -2.7 °F -16.2 °F -11.7 °F 65% 30.53 in 10.0 mi WSW 6.9 mph - N/A   Clear
4:35 PM -3.3 °F -15.4 °F -11.9 °F 67% 30.53 in 10.0 mi West 5.8 mph - N/A   Clear
4:55 PM -3.8 °F -12.2 °F -12.1 °F 68% 30.52 in 10.0 mi WSW 3.5 mph - N/A   Clear
5:15 PM -4.4 °F -12.8 °F -12.3 °F 69% 30.52 in 10.0 mi WSW 3.5 mph - N/A   Clear
5:35 PM -4.5 °F -13.0 °F -12.3 °F 69% 30.52 in 10.0 mi WSW 3.5 mph - N/A   Clear
5:55 PM -5.1 °F - -12.3 °F 71% 30.52 in 10.0 mi Calm Calm - N/A   Clear
6:15 PM -5.8 °F -16.7 °F -12.5 °F 73% 30.52 in 10.0 mi WSW 4.6 mph - N/A   Clear
6:35 PM -5.8 °F -14.5 °F -12.3 °F 74% 30.51 in 10.0 mi West 3.5 mph - N/A   Clear
6:55 PM -5.8 °F -14.5 °F -12.3 °F 74% 30.50 in 10.0 mi WSW 3.5 mph - N/A   Clear
7:15 PM -5.8 °F -14.5 °F -12.1 °F 74% 30.50 in 10.0 mi WSW 3.5 mph - N/A   Clear
7:35 PM -6.7 °F - -12.5 °F 76% 30.49 in 10.0 mi Calm Calm - N/A   Clear
7:55 PM -7.1 °F - -12.6 °F 77% 30.48 in 10.0 mi Calm Calm - N/A   Clear
8:15 PM -8.9 °F - -13.2 °F 81% 30.49 in 10.0 mi Calm Calm - N/A   Clear
8:35 PM -9.4 °F - -13.2 °F 83% 30.49 in 10.0 mi Calm Calm - N/A   Clear
8:55 PM -9.0 °F - -13.4 °F 81% 30.49 in 10.0 mi Calm Calm - N/A   Clear
9:15 PM -9.6 °F - -13.0 °F 85% 30.48 in 10.0 mi Calm Calm - N/A   Clear
9:35 PM -10.5 °F - -14.1 °F 84% 30.48 in 10.0 mi Calm Calm - N/A   Clear
9:55 PM -9.4 °F - -13.0 °F 84% 30.48 in 10.0 mi Calm Calm - N/A   Clear
10:15 PM -10.5 °F - -14.3 °F 83% 30.48 in 10.0 mi Calm Calm - N/A   Clear
10:35 PM -11.2 °F - -15.2 °F 83% 30.48 in 10.0 mi Calm Calm - N/A   Clear
10:55 PM -11.4 °F - -15.7 °F 81% 30.48 in 10.0 mi Calm Calm - N/A   Clear
11:15 PM -12.1 °F - -15.7 °F 84% 30.47 in 10.0 mi Calm Calm - N/A   Clear
11:35 PM -11.7 °F - -15.9 °F 82% 30.47 in 10.0 mi Calm Calm - N/A   Clear
11:55 PM -11.2 °F - -15.2 °F 83% 30.48 in 10.0 mi Calm Calm - N/A   Clear